Regional Weather Roundup
Issued by NWS

Home | Current Version | Previous Version | Text Only | Print | Product List | Glossary On
Versions: 1 2 3 4 5 6 7 8 9 10 11 12 13 14 15 16 17 18 19 20 21 22 23 24 25 26 27 28 29 30 31 32 33 34 35 36 37 38 39 40 41 42 43 44 45 46 47 48 49 50
000
ASUS44 KLIX 252010
RWRLA
LOUISIANA WEATHER ROUNDUP
NATIONAL WEATHER SERVICE NEW ORLEANS LA
200 PM CST SUN JAN 25 2015

NOTE: "FAIR" INDICATES FEW OR NO CLOUDS BELOW 12,000 FEET WITH NO
      SIGNIFICANT WEATHER AND/OR OBSTRUCTIONS TO VISIBILITY.
      SKY/WX - SKY CONDITION AND SIGNIFICANT WEATHER.
      TMP - AIR TEMPERATURE.    DP   - DEWPOINT TEMPERATURE.
      RH  - RELATIVE HUMIDITY.  PRES - PRESSURE.
      HX  - HEAT INDEX.         WCI  - WIND CHILL INDEX.

*  THESE STATIONS ARE NOT NWS OR FAA STATIONS AND ARE NOT UNDER
   NWS QUALITY CONTROL.

LAZ040-048-061>063-065-066-069-252100-
SOUTHEAST LOUISIANA

CITY           SKY/WX    TMP DP  RH WIND       PRES   REMARKS
N.O. AUDUBON   NOT AVBL
N.O. INTL ARPT MOSUNNY   67  39  35 SW17G25   29.92F
N.O. LAKEFRONT SUNNY     67  40  37 SW20      29.92F
N.O. DOWNTOWN* FAIR      66  39  37 SW13G22   29.93F
SLIDELL        SUNNY     64  39  39 SW12G23   29.90F
BATON ROUGE    SUNNY     68  36  30 SW16G25   29.89F
BOOTHVILLE     SUNNY     62  53  72 W15G24    29.97F
BELLE CHASSE   MOSUNNY   67  34  29 SW15G31   29.93F
BOGALUSA*        N/A     67  36  31 SW13G23   29.89F
GALLIANO*        N/A    N/A N/A N/A MISG      29.97S
NEW ROADS*     FAIR      67  42  40 SW16      29.89F
GONZALES*      FAIR      66  38  35 SW13G21   29.92F
HAMMOND*       SUNNY     68  32  26 SW14G23   29.90F
HOUMA*         SUNNY     64  37  36 SW16G29   29.96F
PORT FOURCHON* CLEAR     63  52  67 W15       30.02S

$$

LAZ041-044-053-054-252100-
SOUTHWEST LOUISIANA

CITY           SKY/WX    TMP DP  RH WIND       PRES   REMARKS
LAKE CHARLES   SUNNY     67  41  38 W16G24    29.95S
LAFAYETTE      SUNNY     66  42  41 SW17G28   29.92F
PATTERSON      SUNNY     64  39  39 W23       29.97F
SALT POINT       N/A     59  51  75 SW8       29.97F
NEW IBERIA     LGT RAIN  66  42  41 SW17G28   29.94F
CHENAULT AIRPK SUNNY     68  39  34 SW14      29.94F

$$

LAZ027-028-252100-
CENTRAL LOUISIANA

CITY           SKY/WX    TMP DP  RH WIND       PRES   REMARKS
FORT POLK      SUNNY     67  42  40 W12       29.89F
ALEXANDRIA INT SUNNY     66  42  41 W9        29.84F
ALEXANDRIA     SUNNY     67  41  38 W17G23    29.84F

$$

LAZ001-002-252100-
NORTHWEST LOUISIANA

CITY           SKY/WX    TMP DP  RH WIND       PRES   REMARKS
SHREVEPORT     MOSUNNY   65  31  28 W29G36    29.86F
BARKSDALE AFB  SUNNY     65  32  29 NW18G26   29.85F
DTN SHREVEPORT SUNNY     64  33  31 NW15G30   29.86F

$$

LAZ014-016-252100-
NORTHEAST LOUISIANA

CITY           SKY/WX    TMP DP  RH WIND       PRES   REMARKS
MONROE         SUNNY     64  40  41 W20G30    29.81F
TALLULAH       SUNNY     67  40  37 W13G23    29.79F

$$




USA.gov is the U.S. government's official web portal to all federal, state and local government web resources and services.